Weather History for Monroe, MI

Change the Weather History Date:

Wednesday, March 27, 2013

  Actual Average Record
Temperature  
Mean Temperature 38 °F -  
Max Temperature 46 °F 48 °F 78 °F (2007)
Min Temperature 30 °F 30 °F 8 °F (2002)
Degree Days  
Heating Degree Days 27    
Moisture  
Dew Point 28 °F    
Average Humidity 66    
Maximum Humidity 93    
Minimum Humidity 46    
Precipitation  
Precipitation 0.00 in - - ()
Sea Level Pressure  
Sea Level Pressure 30.14 in    
Wind  
Wind Speed 11 mph (WNW)    
Max Wind Speed 21 mph    
Max Gust Speed 28 mph    
Visibility 10 miles    
Events      
Averages and records for this station are not official NWS values.
T = Trace of Precipitation, MM = Missing Value Source: NWS Daily Summary

Daily Weather History Graph

Daily Weather History Graph

Search for Another Location

Airport:

Trip Planner

Search our weather history database for the weather conditions in past years. The results will help you decide how hot, cold, wet, or windy it might be!

Date:

Astronomy

Mar. 27, 2013 Rise Set
Actual Time 7:24 AM EDT 7:54 PM EDT
Civil Twilight 6:56 AM EDT 8:22 PM EDT
Nautical Twilight 6:23 AM EDT 8:55 PM EDT
Astronomical Twilight 5:49 AM EDT 9:29 PM EDT
Moon 8:38 PM EDT (3/27) 7:14 AM EDT (3/27)
Length of Visible Light 13h 25m
Length of Day
12h 29m
Full, 100% of the Moon is Illuminated
Mar 27
Full
Apr 3
Last Quarter
Apr 10
New
Apr 18
First Quarter
Apr 25
Full

Hourly Weather History & Observations

Time (EDT) Temp. Windchill Dew Point Humidity Pressure Visibility Wind Dir Wind Speed Gust Speed Precip Events Conditions
12:15 AM 37.4 °F 32.1 °F 32.0 °F 81% 30.10 in 10.0 mi West 6.9 mph - N/A   Overcast
12:35 AM 35.6 °F 29.2 °F 32.0 °F 87% 30.10 in 10.0 mi WNW 8.1 mph - N/A   Overcast
12:55 AM 35.6 °F 28.0 °F 32.0 °F 87% 30.10 in 10.0 mi WNW 10.4 mph - N/A   Overcast
1:15 AM 35.6 °F 28.6 °F 32.0 °F 87% 30.11 in 10.0 mi WNW 9.2 mph - N/A   Overcast
1:35 AM 35.6 °F 28.6 °F 32.0 °F 87% 30.11 in 10.0 mi WNW 9.2 mph - N/A   Overcast
1:55 AM 35.6 °F 28.6 °F 32.0 °F 87% 30.11 in 10.0 mi WNW 9.2 mph - N/A   Overcast
2:15 AM 35.6 °F 28.6 °F 32.0 °F 87% 30.11 in 10.0 mi WNW 9.2 mph - N/A   Overcast
2:35 AM 35.6 °F 28.6 °F 32.0 °F 87% 30.11 in 10.0 mi West 9.2 mph - N/A   Overcast
2:55 AM 35.6 °F 28.0 °F 32.0 °F 87% 30.11 in 10.0 mi WNW 10.4 mph - N/A   Overcast
3:15 AM 35.6 °F 29.2 °F 30.2 °F 81% 30.10 in 10.0 mi West 8.1 mph - N/A   Overcast
3:36 AM 35.6 °F 29.2 °F 30.2 °F 81% 30.10 in 10.0 mi WNW 8.1 mph - N/A   Overcast
3:56 AM 35.6 °F 28.6 °F 30.2 °F 81% 30.11 in 10.0 mi WNW 9.2 mph - N/A   Overcast
4:16 AM 35.6 °F 29.2 °F 30.2 °F 81% 30.11 in 10.0 mi WNW 8.1 mph - N/A   Mostly Cloudy
4:36 AM 33.8 °F 27.0 °F 30.2 °F 87% 30.11 in 10.0 mi WNW 8.1 mph - N/A   Scattered Clouds
4:56 AM 33.8 °F 26.4 °F 28.4 °F 81% 30.11 in 10.0 mi WNW 9.2 mph - N/A   Clear
5:16 AM 33.8 °F 25.8 °F 28.4 °F 81% 30.12 in 10.0 mi WNW 10.4 mph - N/A   Clear
5:36 AM 33.8 °F 27.0 °F 28.4 °F 81% 30.12 in 10.0 mi WNW 8.1 mph - N/A   Clear
5:56 AM 33.8 °F 27.0 °F 28.4 °F 81% 30.12 in 10.0 mi WNW 8.1 mph - N/A   Clear
6:16 AM 32.0 °F 24.8 °F 28.4 °F 87% 30.13 in 10.0 mi West 8.1 mph - N/A   Clear
6:52 AM 32.0 °F 24.8 °F 28.4 °F 87% 30.13 in 10.0 mi West 8.1 mph - N/A   Clear
7:12 AM 32.0 °F 24.8 °F 28.4 °F 87% 30.13 in 10.0 mi West 8.1 mph - N/A   Clear
7:32 AM 30.2 °F 22.6 °F 28.4 °F 93% 30.13 in 10.0 mi West 8.1 mph - N/A   Clear
7:52 AM 32.0 °F 24.2 °F 28.4 °F 87% 30.14 in 10.0 mi West 9.2 mph - N/A   Clear
8:12 AM 33.8 °F 26.4 °F 28.4 °F 81% 30.14 in 10.0 mi West 9.2 mph - N/A   Clear
8:32 AM 33.8 °F 25.8 °F 28.4 °F 81% 30.15 in 10.0 mi West 10.4 mph - N/A   Clear
8:52 AM 33.8 °F 25.3 °F 28.4 °F 81% 30.15 in 10.0 mi WNW 11.5 mph - N/A   Clear
9:12 AM 35.6 °F 28.0 °F 28.4 °F 75% 30.15 in 10.0 mi WNW 10.4 mph 18.4 mph N/A   Clear
9:32 AM 35.6 °F 26.6 °F 28.4 °F 75% 30.15 in 10.0 mi WNW 13.8 mph - N/A   Clear
9:53 AM 37.4 °F 28.2 °F 28.4 °F 70% 30.15 in 10.0 mi WNW 16.1 mph 21.9 mph N/A   Clear
10:13 AM 37.4 °F 27.5 °F 26.6 °F 65% 30.15 in 10.0 mi WNW 18.4 mph 23.0 mph N/A   Clear
10:33 AM 39.2 °F 30.2 °F 28.4 °F 65% 30.15 in 10.0 mi WNW 17.3 mph 23.0 mph N/A   Clear
10:53 AM 41.0 °F 32.2 °F 26.6 °F 57% 30.15 in 10.0 mi WNW 18.4 mph 27.6 mph N/A   Clear
11:13 AM 42.8 °F 34.5 °F 26.6 °F 53% 30.15 in 10.0 mi WNW 18.4 mph 23.0 mph N/A   Clear
11:33 AM 42.8 °F 34.0 °F 26.6 °F 53% 30.16 in 10.0 mi WNW 20.7 mph 25.3 mph N/A   Clear
11:53 AM 44.6 °F 36.9 °F 26.6 °F 49% 30.16 in 10.0 mi WNW 18.4 mph 21.9 mph N/A   Clear
12:13 PM 44.6 °F 36.6 °F 26.6 °F 49% 30.16 in 10.0 mi West 19.6 mph 25.3 mph N/A   Clear
12:33 PM 44.6 °F 37.2 °F 28.4 °F 53% 30.16 in 10.0 mi WNW 17.3 mph 26.5 mph N/A   Clear
12:53 PM 46.4 °F 39.5 °F 26.6 °F 46% 30.15 in 10.0 mi West 17.3 mph 24.2 mph N/A   Clear
1:13 PM 44.6 °F 38.8 °F 26.6 °F 49% 30.15 in 10.0 mi NW 11.5 mph 23.0 mph N/A   Clear
1:34 PM 46.4 °F 40.4 °F 28.4 °F 50% 30.15 in 10.0 mi West 13.8 mph 26.5 mph N/A   Scattered Clouds
1:54 PM 46.4 °F 40.1 °F 26.6 °F 46% 30.15 in 10.0 mi NW 15.0 mph 23.0 mph N/A   Mostly Cloudy
2:14 PM 46.4 °F 40.7 °F 28.4 °F 50% 30.14 in 10.0 mi WNW 12.7 mph 21.9 mph N/A   Mostly Cloudy
2:34 PM 46.4 °F 39.5 °F 28.4 °F 50% 30.14 in 10.0 mi West 17.3 mph 21.9 mph N/A   Overcast
2:54 PM 46.4 °F 39.5 °F 26.6 °F 46% 30.14 in 10.0 mi West 17.3 mph 23.0 mph N/A   Overcast
3:14 PM 46.4 °F 40.1 °F 26.6 °F 46% 30.13 in 10.0 mi West 15.0 mph 20.7 mph N/A   Overcast
3:51 PM 46.4 °F 40.1 °F 26.6 °F 46% 30.13 in 10.0 mi WNW 15.0 mph - N/A   Overcast
4:12 PM 46.4 °F 40.7 °F 26.6 °F 46% 30.13 in 10.0 mi WNW 12.7 mph 21.9 mph N/A   Overcast
4:32 PM 46.4 °F 40.7 °F 26.6 °F 46% 30.13 in 10.0 mi WNW 12.7 mph - N/A   Overcast
4:52 PM 46.4 °F 39.8 °F 26.6 °F 46% 30.13 in 10.0 mi WNW 16.1 mph 20.7 mph N/A   Overcast
5:12 PM 46.4 °F 39.5 °F 26.6 °F 46% 30.13 in 10.0 mi West 17.3 mph - N/A   Overcast
5:32 PM 46.4 °F 40.1 °F 26.6 °F 46% 30.13 in 10.0 mi NW 15.0 mph 20.7 mph N/A   Overcast
5:52 PM 46.4 °F 40.1 °F 26.6 °F 46% 30.13 in 10.0 mi West 15.0 mph 20.7 mph N/A   Overcast
6:12 PM 44.6 °F 37.2 °F 26.6 °F 49% 30.14 in 10.0 mi West 17.3 mph - N/A   Overcast
6:32 PM 44.6 °F 38.1 °F 26.6 °F 49% 30.14 in 10.0 mi WNW 13.8 mph 20.7 mph N/A   Overcast
6:52 PM 44.6 °F 38.1 °F 26.6 °F 49% 30.14 in 10.0 mi WNW 13.8 mph - N/A   Overcast
7:13 PM 44.6 °F 38.4 °F 26.6 °F 49% 30.14 in 10.0 mi WNW 12.7 mph - N/A   Overcast
7:33 PM 44.6 °F 38.1 °F 26.6 °F 49% 30.15 in 10.0 mi WNW 13.8 mph - N/A   Overcast
7:53 PM 44.6 °F 39.2 °F 26.6 °F 49% 30.15 in 10.0 mi WNW 10.4 mph - N/A   Overcast
8:13 PM 42.8 °F 37.5 °F 28.4 °F 57% 30.15 in 10.0 mi WNW 9.2 mph - N/A   Overcast
8:34 PM 42.8 °F 38.0 °F 28.4 °F 57% 30.15 in 10.0 mi West 8.1 mph - N/A   Overcast
8:54 PM 41.0 °F 35.2 °F 28.4 °F 61% 30.16 in 10.0 mi West 9.2 mph - N/A   Mostly Cloudy
9:14 PM 39.2 °F 32.5 °F 28.4 °F 65% 30.17 in 10.0 mi West 10.4 mph - N/A   Scattered Clouds
9:34 PM 39.2 °F 33.0 °F 28.4 °F 65% 30.18 in 10.0 mi West 9.2 mph - N/A   Mostly Cloudy
9:54 PM 37.4 °F 32.1 °F 28.4 °F 70% 30.18 in 10.0 mi West 6.9 mph - N/A   Mostly Cloudy
10:14 PM 37.4 °F 31.4 °F 28.4 °F 70% 30.19 in 10.0 mi West 8.1 mph - N/A   Mostly Cloudy
10:34 PM 39.2 °F 32.0 °F 26.6 °F 61% 30.19 in 10.0 mi West 11.5 mph - N/A   Overcast
10:54 PM 37.4 °F 30.3 °F 26.6 °F 65% 30.19 in 10.0 mi WNW 10.4 mph - N/A   Overcast
11:15 PM 37.4 °F 30.3 °F 26.6 °F 65% 30.19 in 10.0 mi WNW 10.4 mph - N/A   Overcast
11:35 PM 37.4 °F 30.3 °F 26.6 °F 65% 30.19 in 10.0 mi WNW 10.4 mph - N/A   Overcast
11:55 PM 35.6 °F 28.0 °F 26.6 °F 70% 30.19 in 10.0 mi West 10.4 mph - N/A   Overcast